DMSP 5D-2 F13 DEB, 40412

Orbit data source: Space-Track

DMSP 5D-2 F13 DEB, 40412 is space debris in SSO originally from a launch on Fri, 24 Mar 1995 UTC launched from the Air Force Western Test Range (AFWTR). Debris objects in space refer to the collection of defunct objects orbiting the Earth. Examples of debris include non-operational satellites, rocket bodies, and fragments generated from explosions, collisions, or faulty payload assembly.

Loading next visibility...
Identifier
40412, 1995-015Z
Orbit
SSO
Country
Flag of USUS
Related business
Manufacturer
Unknown
Mission
Spacecraft
Bus & Motor
Unknown
Mass
Unknown
Launch date (UTC)
1995-03-24 (31 years ago)
Launch vehicle
Unknown
Launch site
Air Force Western Test Range (AFWTR)
Object type
Payload
Rocket body
Debris
Shape & HBR
Unknown shape, 0.1 m
Radar Cross Section
Small (<0.1 m²)

Expand to show TLE details & history
Last TLE update: 2 days ago

TLE from 2 days ago
0 DMSP 5D-2 F13 DEB
1 40412U 95015Z   25287.99387010  .00000383  00000-0  19743-3 0  9993
2 40412  98.7176 301.0564 0018864   0.7480 359.3722 14.20821402551114
Epoch: 2025-10-14T23:51Z
TLE epoch observation values (Epoch: 2025-10-14T23:51:10.376Z)
Latitude
-0.00003°
Longitude
-80.51115°
Altitude
811.906 km
Speed
7.454 km/s
True Right ascension
20h 04m 13s
True Declination
0° 00' 00"
Sunlit
Object was in daylight at epoch
Visualization orbit readout
Latitude
Unknown
Longitude
Unknown
Altitude
Unknown
Speed
Unknown
Apparent Right ascension
Unknown
Apparent Declination
Unknown
Sunlit
N/A
Visualization observer readout
Local Sidereal Time
07:49:01
Azimuth
Unknown
Elevation
Unknown
Doppler factor
Unknown
Orbital elements
Apogee altitude
833.312 km
Perigee altitude
806.156 km
Semi-major axis
7,197.871 km
Eccentricity
0.00189
Inclination
98.7176°
RAAN
301.0564°
Arg. of periapsis
0.748°
True anomaly
359.36983°
Mean anomaly
359.3722°
Eccentric anomaly
359.37101°
Mean motion
3.55416 °/min
Orbital period
101.29 mins
BSTAR
0.00019743

Documentation

Showing up to 5 results
|